Regional Weather Roundup
Issued by NWS

Home | Current Version | Previous Version | Text Only | Print | Product List | Glossary On
Versions: 1 2 3 4 5 6 7 8 9 10 11 12 13 14 15 16 17 18 19 20 21 22 23 24 25 26 27 28 29 30 31 32 33 34 35 36 37 38 39 40 41 42 43 44 45 46 47 48 49 50
000
ASUS45 KBOU 020307
RWRCO

WEATHER ROUNDUP FOR COLORADO
NATIONAL WEATHER SERVICE DENVER/BOULDER CO
900 PM MDT SUN MAY 01 2016

NOTE: "FAIR" INDICATES FEW OR NO CLOUDS BELOW 12000 FEET WITH NO
SIGNIFICANT WEATHER AND/OR OBSTRUCTIONS TO VISIBILITY.

COZ001>005-013-030-031-020400-
...NORTHWEST COLORADO...

CITY           SKY/WX    TMP DP  RH WIND       PRES   REMARKS
CRAIG          FAIR      47  27  45 E10       30.09R
HAYDEN         FAIR      45  23  42 E14       30.10R
MEEKER         CLOUDY    49  29  46 NW12      30.08R
MOUNT WERNER   NOT AVBL
STEAMBOAT SPGS FAIR      42  22  45 NE15G22   30.11R
WALDEN         CLOUDY    30  19  64 NE12      30.21R WCI  21
$$

COZ006>008-011-020400-
...WEST CENTRAL VALLEYS...

CITY           SKY/WX    TMP DP  RH WIND       PRES   REMARKS
GRAND JUNCTION CLOUDY    52  36  54 SE17G23   30.08R
MONTROSE       LGT RAIN  47  34  60 E8        30.16R
EAGLE          CLOUDY    46  27  46 NE3       30.14R
RIFLE          LGT RAIN  47  39  74 S8        30.11R
DELTA          NOT AVBL
NUCLA          NOT AVBL
$$

COZ017>023-064>068-020400-
...SOUTHWEST COLORADO...

CITY           SKY/WX    TMP DP  RH WIND       PRES   REMARKS
DURANGO        LGT RAIN  38  36  92 SE7       30.18R
CORTEZ         CLOUDY    43  37  79 NE5       30.15R
PAGOSA SPRINGS LGT SNOW  34  34 100 CALM      30.21R
TELLURIDE      FLURRIES  34  33  97 W6        30.19R WCI  28
WOLF CREEK PAS SNOW      21  21 100 MISG      30.27R VSB 1/2
$$

COZ009-010-012-014-032>034-037-058>063-020400-
...CENTRAL COLORADO...

CITY           SKY/WX    TMP DP  RH WIND       PRES   REMARKS
ASPEN          CLOUDY    41  24  51 SE8       30.14R
BUENA VISTA    CLOUDY    31  29  93 SE6       30.26R WCI  25
COPPER MTN     NOT AVBL
BERTHOUD PASS  CLOUDY    12   3  67 SE14G20   30.23R WCI  -3
COTTONWOOD PAS LGT SNOW  28  25  86 CALM      30.25R
GUNNISON       CLOUDY    37  25  60 E9        30.21R
KREMMLING      FAIR      36  21  55 E7        30.18R
LEADVILLE      LGT SNOW  23  22  96 S8        30.22R FOG     WCI  14
MONARCH PASS   CLOUDY    18  14  86 MISG      30.33R
SALIDA         CLOUDY    32  31  94 SE8       30.34R WCI  25
SUNLIGHT       LGT SNOW  32  30  93 CALM      30.24R
WILKERSON PASS LGT SNOW N/A N/A N/A S3        30.28R
$$

COZ069>075-020400-
...SAN LUIS VALLEY/SANGRE DE CRISTO MOUNTAINS...

CITY           SKY/WX    TMP DP  RH WIND       PRES   REMARKS
ALAMOSA        CLOUDY    33  25  72 E13       30.20R WCI  24
LA VETA PASS   SNOW      21  19  93 MISG      30.25S VSB 1/2
SAGUACHE       LGT RAIN  36  30  80 CALM      30.21S
$$

COZ035-036-038>040-020400-
...NORTHERN COLORADO FRONT RANGE...

CITY           SKY/WX    TMP DP  RH WIND       PRES   REMARKS
DENVER INTL AP MOCLDY    36  27  69 W6        30.28R
DMNS CITY PARK   N/A     39  30  71 SE9G15    30.28S
AURORA         CLOUDY    35  30  82 SW5       30.29R WCI  31
FRONT RANGE AP PTCLDY    32  28  86 CALM      30.28R
ERIE MUNI ARPT CLOUDY    39  34  80 CALM      30.28S
BOULDER MUN AP CLOUDY    41  34  75 CALM      30.28R
CENTENNIAL     MOCLDY    33  29  85 SW6       30.28R WCI  28
BROOMFIELD     MOCLDY    36  32  87 W6        30.28S
FORT COLLINS   FAIR      39  27  60 CALM      30.29S
LONGMONT       CLOUDY    43  32  63 SW3       30.30S
$$

COZ041-046-047-076>085-087-088-020400-
...PIKES PEAK/PALMER DIVIDE AND SOUTHERN FOOTHILLS...

CITY           SKY/WX    TMP DP  RH WIND       PRES   REMARKS
COLO. SPRINGS  MOCLDY    34  26  72 NW7       30.29R WCI  28
A. F. ACADEMY  FAIR      30  25  80 N14       30.27R WCI  20
SCHRIEVER AFB  NOT AVBL
ELLICOTT       NOT AVBL
FALCON         FAIR      30  27  87 W7        30.28R WCI  23
FORT CARSON    CLOUDY    36  29  78 NW3       30.28R
LIMON          FAIR      29  27  92 N6        30.28R WCI  23
MONUMENT HILL  FAIR      27  25  93 W6        30.29R WCI  20
TRINIDAD       CLOUDY    34  32  92 W3        30.29R
$$

COZ042>045-048>051-090-091-020400-
...NORTHEAST COLORADO...

CITY           SKY/WX    TMP DP  RH WIND       PRES   REMARKS
GREELEY ARPT   FAIR      37  28  70 NW5       30.29R
AKRON          FAIR      36  26  67 CALM      30.27R
BURLINGTON     FAIR      35  27  72 NW8       30.26R WCI  29
WRAY           NOT AVBL
STERLING       FAIR      37  32  81 CALM      30.26S
HOLYOKE        NOT AVBL
FORT MORGAN    FAIR      37  27  66 N6        30.28S
$$

COZ086-089-092>099-020400-
...SOUTHEAST COLORADO...

CITY           SKY/WX    TMP DP  RH WIND       PRES   REMARKS
PUEBLO         CLOUDY    42  32  67 E6        30.30R
LA JUNTA       FAIR      43  31  62 NW9       30.28R
LAMAR          CLOUDY    42  35  76 W3        30.24R
SPRINGFIELD      N/A     39  35  86 N10       30.25R
$$



USA.gov is the U.S. government's official web portal to all federal, state and local government web resources and services.